Flag for Germany Weather past 2 weeks in Detmold, North Rhine-Westphalia, Germany

Now
67 °F

Overcast.


Feels Like: 67 °F
Forecast: 49 / 74 °F
Wind: 2 mph from North

Location: Bad Lippspringe

Current Time: Aug 27, 2014 at 5:51:03 PM

Latest Report: Aug 27, 2014 at 5:00 PM


Visibility: 38 mi

Pressure: 30.02 "Hg

Humidity: 54%

Dew point: 49 °F

Location of DetmoldLocation

Historic Weather in Detmold — Graph

°F

Detmold temperature yesterday

Maximum temperature yesterday: 59 °F (at 4:00 PM)
Minimum temperature yesterday: 52 °F (at 11:00 PM)
Average temperature yesterday: 56 °F

Past Weeks' High & Low Weather Summary

 TemperatureHumidityPressure
High69 °F (Aug 12, 4:00 PM)99% (Aug 27, 5:00 AM)30.09 "Hg (Aug 27, 5:00 AM)
Low42 °F (Aug 25, 7:00 AM)45% (Aug 12, 4:00 PM)29.64 "Hg (Aug 13, 5:00 PM)
Average56 °F79%29.89 "Hg
* Reported Aug 12 4:00 PM — Aug 27 4:00 PM, Detmold, Weather by CustomWeather, © 2014

Note: Actual official high and low records may vary slightly from our data, if they occured in-between our weather recording intervals... More about our weather records

Advertising

Detmold weather history for previous 24 hours

 ConditionsComfort  
Time TempWeatherWind HumidityBarometerVisibility
4:00 PM
Aug 27
67 °FOvercast.2 mph53%30.02 "Hg25 mi
3:00 PM65 °FPartly sunny.2 mph54%30.03 "Hg22 mi
2:00 PM66 °FPassing clouds.2 mph52%30.03 "Hg28 mi
1:00 PM63 °FScattered clouds.1 mph60%30.03 "Hg25 mi
12:00 PM64 °FSunny.1 mph59%30.02 "Hg17 mi
11:00 AM61 °FSunny.1 mph67%30.01 "Hg9 mi
10:00 AM56 °FSunny.1 mph75%30.01 "Hg7 mi
9:00 AM53 °FFog.1 mph82%29.99 "Hg4 mi
8:00 AM47 °FFog.No wind91%29.98 "Hg2 mi
7:00 AM44 °FSunny.1 mph99%29.96 "Hg1 mi
6:00 AM44 °FClear.1 mph99%29.93 "Hg0 mi
5:00 AM45 °FClear.1 mph99%29.92 "Hg1 mi
4:00 AM45 °FClear.1 mph97%29.90 "Hg1 mi
3:00 AM47 °FFog.1 mph97%29.88 "Hg1 mi
2:00 AM48 °FFog.1 mph97%29.87 "Hg1 mi
1:00 AM50 °FFog.1 mph96%29.86 "Hg1 mi
12:00 AM51 °FFog.1 mph96%29.84 "Hg2 mi
11:00 PM
Aug 26
52 °FFog.1 mph95%29.83 "Hg2 mi
10:00 PM54 °FFog.No wind93%29.81 "Hg3 mi
9:00 PM56 °FOvercast.2 mph86%29.79 "Hg5 mi
8:00 PM57 °FOvercast.2 mph88%29.77 "Hg8 mi
7:00 PM58 °FOvercast.2 mph85%29.76 "Hg11 mi
6:00 PM58 °FOvercast.2 mph87%29.77 "Hg9 mi
5:00 PM59 °FLight freezing rain. Overcast.N/A85%29.77 "Hg9 mi
Weather by CustomWeather, © 2014

See weather overviewHow to use our weather pages